Regional Weather Roundup
Issued by NWS

Home | Current Version | Previous Version | Text Only | Print | Product List | Glossary On
Versions: 1 2 3 4 5 6 7 8 9 10 11 12 13 14 15 16 17 18 19 20 21 22 23 24 25 26 27 28 29 30 31 32 33 34 35 36 37 38 39 40 41 42 43 44 45 46 47 48 49 50
000
ASUS44 KFWD 170015
RWRTX
NORTH TEXAS HOURLY WEATHER ROUNDUP
NATIONAL WEATHER SERVICE FORT WORTH TX
600 PM CST MON JAN 16 2017

NOTE: "FAIR" INDICATES FEW OR NO CLOUDS BELOW 12,000 FEET WITH NO
SIGNIFICANT WEATHER AND/OR OBSTRUCTIONS TO VISIBILITY.

TXZ118-119-170100-
DALLAS/FORT WORTH METROPLEX

CITY           SKY/WX    TMP DP  RH WIND       PRES   REMARKS
DFW AIRPORT    MOCLDY    59  46  62 NW7       30.00R
6HR MIN TEMP:  58; 6HR MAX TEMP:  66;

DALLAS LOVE    MOCLDY    61  46  57 NW7       30.00R
6HR MIN TEMP:  59; 6HR MAX TEMP:  65;

FTW MEACHAM    PTCLDY    59  44  57 NW7       30.00R
6HR MIN TEMP:  59; 6HR MAX TEMP:  65;

DAL-EXECUTIVE  PTCLDY    59  48  67 CALM      30.00R
6HR MIN TEMP:  58; 6HR MAX TEMP:  66;

FTW-ALLIANCE   MOCLDY    57  45  64 NW7       30.00R
6HR MIN TEMP:  57; 6HR MAX TEMP:  64;

FTW-NAS-JRB    PTCLDY    59  46  62 NW5       30.01R
6HR MIN TEMP:  59; 6HR MAX TEMP:  65;

FTW-SPINKS     CLEAR     59  45  58 CALM      30.02R
ARLINGTON      PTCLDY    59  46  62 NW5       30.00R
6HR MIN TEMP:  59; 6HR MAX TEMP:  66;

ADDISON        CLEAR     59  52  77 N7        30.01R
MESQUITE       CLEAR     61  46  59 CALM      30.01R
LANCASTER      PTCLDY    60  47  64 CALM      30.02R
6HR MIN TEMP:  60; 6HR MAX TEMP:  66;

$$

TXZ091>094-102>105-117-120-121-131>134-170100-
NORTH CENTRAL TEXAS

CITY           SKY/WX    TMP DP  RH WIND       PRES   REMARKS
SHRMAN/DENISON CLEAR     54  44  69 NW7       30.02R
6HR MIN TEMP:  53; 6HR MAX TEMP:  59;

GAINESVILLE    CLEAR     52  38  59 NW7       30.04R
6HR MIN TEMP:  49; 6HR MAX TEMP:  59;

BOWIE          CLEAR     52  40  63 W5        30.03R
6HR MIN TEMP:  51; 6HR MAX TEMP:  58;

BRIDGEPORT     CLEAR     55  43  63 NW5       30.04R
6HR MIN TEMP:  53; 6HR MAX TEMP:  61;

DECATUR        CLEAR     75  59  57 NW5       30.02R
DENTON         CLEAR     57  45  64 NW6       30.01R
6HR MIN TEMP:  53; 6HR MAX TEMP:  61;

MCKINNEY       CLEAR     56  47  71 N6        30.00R
6HR MIN TEMP:  56; 6HR MAX TEMP:  62;

BONHAM         CLEAR     54  45  71 NW5       30.01R
GREENVILLE     CLEAR     59  46  63 CALM      30.02R
ROCKWALL       CLEAR     59  47  62 CALM      30.01R
6HR MIN TEMP:  59; 6HR MAX TEMP:  64;

TERRELL        PTCLDY    61  46  57 N5        30.01R
6HR MIN TEMP:  61; 6HR MAX TEMP:  67;

WAXAHACHIE     PTCLDY    60  48  64 N3        30.01R
6HR MIN TEMP:  60; 6HR MAX TEMP:  66;

CLEBURNE       PTCLDY    59  48  67 N5        30.02R
GRANBURY       PTCLDY    59  48  67 NW3       30.02R
6HR MIN TEMP:  55; 6HR MAX TEMP:  66;

$$

TXZ083>090-098>101-113>116-127>130-139>142-154-155-170100-
WESTERN NORTH TEXAS

CITY           SKY/WX    TMP DP  RH WIND       PRES   REMARKS
WICHITA FALLS  CLEAR     52  40  63 NW7       30.02R
6HR MIN TEMP:  50; 6HR MAX TEMP:  57;

WF-KICKAPOO    CLEAR     55  39  55 CALM      30.04R
6HR MIN TEMP:  50; 6HR MAX TEMP:  57;

VERNON           N/A    N/A N/A N/A MISG      30.05R
ABILENE        CLEAR     57  46  66 NE7       30.02R
6HR MIN TEMP:  51; 6HR MAX TEMP:  63;

ABILENE-DYESS  CLEAR     56  39  53 NE5       30.00R
6HR MIN TEMP:  52; 6HR MAX TEMP:  62;

GRAHAM         CLEAR     54  43  66 NW5       30.01R
BRECKENRIDGE   CLEAR     60  43  53 N3        30.02R HAZE
6HR MIN TEMP:  55; 6HR MAX TEMP:  63;

CISCO          CLEAR     59  45  58 CALM      30.01R
MINERAL WELLS  CLEAR     57  44  62 N5        30.00R
6HR MIN TEMP:  55; 6HR MAX TEMP:  63;

STEPHENVILLE   CLEAR     59  47  63 CALM      30.03R
6HR MIN TEMP:  59; 6HR MAX TEMP:  66;

COMANCHE       CLEAR     63  46  54 CALM      30.00R
6HR MIN TEMP:  61; 6HR MAX TEMP:  67;

BROWNWOOD      CLOUDY    59  48  67 SE3       30.01R
COLEMAN        CLEAR     61  46  59 CALM      30.00R
$$

TXZ143>147-156>162-174-175-170100-
CENTRAL TEXAS

CITY           SKY/WX    TMP DP  RH WIND       PRES   REMARKS
WACO           CLOUDY    65  51  60 NE6       29.99R
6HR MIN TEMP:  65; 6HR MAX TEMP:  72;

WACO-TSTC      MOCLDY    66  50  55 NE5       29.99R
WACO-MCGREGOR  CLOUDY    65  52  62 NE3       29.99R
6HR MIN TEMP:  65; 6HR MAX TEMP:  69;

HILLSBORO      PTCLDY    62  51  69 CALM      30.01R
6HR MIN TEMP:  61; 6HR MAX TEMP:  69;

CORSICANA      CLOUDY    65  49  56 N5        30.00R
6HR MIN TEMP:  65; 6HR MAX TEMP:  70;

MEXIA          CLOUDY    64  49  57 CALM      29.99R
6HR MIN TEMP:  64; 6HR MAX TEMP:  68;

HEARNE         DRIZZLE   57  56  99 CALM      30.01R
6HR MIN TEMP:  56; 6HR MAX TEMP:  66; 6HR PCP:  0.21;

CAMERON          N/A     59  57  91 E6        29.98S
6HR MIN TEMP:  59; 6HR MAX TEMP:  68;

TEMPLE         CLOUDY    65  53  65 E3        30.00R
6HR MIN TEMP:  65; 6HR MAX TEMP:  70;

KILLEEN        CLOUDY    64  52  65 CALM      29.98R
6HR MIN TEMP:  64; 6HR MAX TEMP:  70;

KILLEEN-SKYLRK CLOUDY    66  51  58 E3        29.99R
6HR MIN TEMP:  65; 6HR MAX TEMP:  71;

GATESVILLE     CLOUDY    64  48  55 CALM      30.02R
HAMILTON       CLOUDY    63  46  54 CALM      30.01R
6HR MIN TEMP:  63; 6HR MAX TEMP:  69;

LAMPASAS       CLOUDY    63  49  61 N3        29.99S
6HR MIN TEMP:  63; 6HR MAX TEMP:  71;

$$

TXZ095>097-106>112-122>126-135>138-148>153-164>167-170100-
EAST TEXAS

CITY           SKY/WX    TMP DP  RH WIND       PRES   REMARKS
PARIS          CLEAR     57  45  62 W6        30.00R
6HR MIN TEMP:  57; 6HR MAX TEMP:  66;

SULPHUR SPRNGS CLEAR     59  49  70 NW3       30.03R
6HR MIN TEMP:  59; 6HR MAX TEMP:  67;

MOUNT PLEASANT PTCLDY    62  51  67 SW5       30.02R
6HR MIN TEMP:  62; 6HR MAX TEMP:  66;

GILMER         LGT RAIN  58  55  88 W3        30.01R
6HR MIN TEMP:  58; 6HR MAX TEMP:  66; 6HR PCP:  0.04;

MINEOLA        PTCLDY    63  48  59 CALM      30.00R
TYLER          LGT RAIN  58  56  93 SE3       30.00R
6HR MIN TEMP:  58; 6HR MAX TEMP:  68; 6HR PCP:  0.22;

LONGVIEW       CLOUDY    59  59 100 W5        29.99R
6HR MIN TEMP:  59; 6HR MAX TEMP:  73; 6HR PCP:  0.97;

MARSHALL       CLOUDY    65  63  92 NW7       29.99R
6HR MIN TEMP:  65; 6HR MAX TEMP:  72; 6HR PCP:  0.58;

ATHENS         CLOUDY    55  55 100 CALM      29.99S
PALESTINE      LGT RAIN  56  56  99 N3        30.01S
JACKSONVILLE   LGT RAIN  59  59 100 N3        30.01S
HENDERSON      CLOUDY    59  59 100 W3        30.01R
6HR MIN TEMP:  59; 6HR MAX TEMP:  71; 6HR PCP:  0.37;

CENTER         PTCLDY    71  64  80 S5        29.99R
6HR MIN TEMP:  70; 6HR MAX TEMP:  74; 6HR PCP:  0.09;

NACOGDOCHES    CLOUDY    70  63  78 S6        29.96R VSB 3/4
6HR MIN TEMP:  66; 6HR MAX TEMP:  72;

LUFKIN         CLOUDY    71  62  73 S9        29.98R
6HR MIN TEMP:  67; 6HR MAX TEMP:  75; 6HR PCP:  0.24;

$$

SUPPLEMENTAL OBSERVATIONS (CENTRAL)

CITY           SKY/WX    TMP DP  RH WIND       PRES   REMARKS
DENISON DAM      N/A     54  43  66 W9          N/A
CADDO GRASSLND   N/A     55  45  67 NW2         N/A
PAT MAYSE LAKE   N/A     55  48  76 W6          N/A
GREENVILLE       N/A     55  45  67 NW3         N/A
CEDAR HILL       N/A     55  46  71 SE1         N/A
ATHENS           N/A     57  54  88 SE3         N/A
LAKE LIMESTONE   N/A     57  54  88 NE3         N/A
MCGREGOR         N/A     64  50  59 NE2         N/A
TEMPLE           N/A     66  50  55 NE5         N/A
$$

SUPPLEMENTAL OBSERVATIONS (WEST)

CITY           SKY/WX    TMP DP  RH WIND       PRES   REMARKS
MILLERS CREEK    N/A     54  41  62 NE2


USA.gov is the U.S. government's official web portal to all federal, state and local government web resources and services.